Regional Weather Roundup
Issued by NWS Green Bay, WI

Home | Current Version | Previous Version | Text Only | Print | Product List | Glossary On
Versions: 1 2 3 4 5 6 7 8 9 10 11 12 13 14 15 16 17 18 19 20 21 22 23 24 25 26 27 28 29 30 31 32 33 34 35 36 37 38 39 40 41 42 43 44 45 46 47 48 49 50
000
ASUS43 KGRB 270600
RWRGRB

NORTH-CENTRAL AND NORTHEAST WISCONSIN REGIONAL WEATHER ROUNDUP
NATIONAL WEATHER SERVICE GREEN BAY WI
100 AM CDT THU APR 27 2017

WIZ005-009-010>012-018-019-270700-
NORTH CENTRAL WISCONSIN

CITY           SKY/WX    TMP DP  RH WIND       PRES   REMARKS
IRONWOOD       LGT SNOW  27  26  96 N8        29.56S FOG
MANITOWISH WTR NOT AVBL
ARBOR VITAE    NOT AVBL
EAGLE RIVER    NOT AVBL
LAND O LAKES   NOT AVBL
RHINELANDER    CLOUDY    34  33  96 N6        29.47F
PHILLIPS       CLOUDY    30  28  93 N7        29.50F
ANTIGO         NOT AVBL
TOMAHAWK       NOT AVBL
MERRILL        NOT AVBL
$$

WIZ013-073-270700-
NORTHEAST WISCONSIN

CITY           SKY/WX    TMP DP  RH WIND       PRES   REMARKS
IRON MOUNTAIN  CLOUDY    38  34  85 NW12      29.45F
MARINETTE      LGT RAIN  46  42  86 N12       29.44R
$$

WIZ017-030-035>037-045-270700-
CENTRAL WISCONSIN

CITY           SKY/WX    TMP DP  RH WIND       PRES   REMARKS
MEDFORD        NOT AVBL
WAUSAU         CLOUDY    38  35  89 NW9       29.45F
MOSINEE        NOT AVBL
MARSHFIELD     CLOUDY    39  35  86 N8        29.46S
WISC RAPIDS    CLOUDY    42  39  89 NW8       29.47F
STEVENS POINT  NOT AVBL
WAUPACA        NOT AVBL
SHAWANO        NOT AVBL
CLINTONVILLE   CLOUDY    46  43  87 N6        29.44F
WAUTOMA        CLOUDY    44  42  93 NW7       29.46F
$$

WIZ038-039-048-051-270700-
FOX VALLEY

CITY           SKY/WX    TMP DP  RH WIND       PRES   REMARKS
NWS GREEN BAY  LGT RAIN  51  50  96 W5        29.43F
APPLETON       NOT AVBL
OSHKOSH        CLOUDY    47  44  90 NW8       29.42F
FOND DU LAC    LGT RAIN  48  44  86 NW7       29.43F
$$

WIZ022-050-052-270700-
EAST CENTRAL WISCONSIN

CITY           SKY/WX    TMP DP  RH WIND       PRES   REMARKS
EPHRAIM        NOT AVBL
WASHINGTON ISL NOT AVBL
STURGEON BAY   LGT RAIN  55  52  89 W5        29.43S
MANITOWOC      NOT AVBL
SHEBOYGAN      LGT RAIN  51  49  92 NW6       29.43S
$$

LMZ563-521-522-541>543-270700-
LAKESHORE

STATION/POSITION TIME  TEMP    WIND        PRES    VSBY  WAVE
                       AIR SEA DIR/SP/G                  HT/PER
                 (UTC) (F)     (DEG/KT/KT) (MB)    (MI)  (FT/S)
SHEBOYGAN LKSHOR 0500   57     300/  8/  9  996.5R
KEWAUNEE LKSHORE 0530   56     290/  7/  9  996.2F
NORTHPORT PIER   0540   47     300/  9/ 12  996.6S
N MID LAKE BUOY  0450   42 37  180/  8/  8  997.4F         2/ 5
CHAMBERS ISLAND  0540   45     300/  8/ 11  997.3R
MENOMINEE LKSHOR 0530   48     320/ 11/ 16  996.4R
$$



USA.gov is the U.S. government's official web portal to all federal, state and local government web resources and services.